Find Local Weather

World > North America > United States > New York

Mohawk, New York Regional Weather

Lat: 43.01N, Lon: 75.01W
Wx Zone: NYZ038
Feedback

Mohawk, NY Regional Weather

Expires:201903251300;;894693
ASUS41 KGYX 251205
RWRGYX
WEATHER ROUNDUP FOR MAINE AND NEW HAMPSHIRE
NATIONAL WEATHER SERVICE GRAY ME
800 AM EDT MON MAR 25 2019


MAZ007-012-024-CTZ003-RIZ002-NYZ038-NYZ072-251300-
SOUTHERN NEW ENGLAND AND NY
  
CITY           SKY/WX    TMP DP  RH WIND       PRES   REMARKS
BOSTON         CLOUDY    41  26  55 N13       30.03R                  
WORCESTER      CLOUDY    37  26  64 N9        30.01R                  
NANTUCKET      CLOUDY    44  37  76 W7        30.01S                  
PROVIDENCE     CLOUDY    46  27  47 NW7       30.02R                  
HARTFORD       CLOUDY    43  27  53 NW10      30.04R                  
ALBANY         PTSUNNY   34  19  54 NE8       30.14R                  
NEW YORK CITY  PTSUNNY   50  26  39 NW10      30.02R                  
$$


SKY/WX - Weather  TMP - Temperature  DP - Dew Point  RH - Relative Humidity
WIND - Wind Direction/Speed PRES - Barometric Pressure VSB - Visibility
WCI - Wind Chill Index E13G22 Wind - East Wind 13 mph/Gusts of 22 mph